EB5ETD Weather Reports


Display with metric or nautical units.
time (UTC)temp
F
wind
direction
speed
MPH
gust
MPH
rain 1hr
in
rain 24hr
in
rain mn
in
humidity
%
barometer
mb
20260503024504 57 41 0.0 1.0 0.00 0.00 0.00 91 1023.1
20260503024003 57 42 1.0 2.0 0.00 0.00 0.00 91 1023.3
20260503023504 57 41 0.0 2.0 0.00 0.00 0.00 91 1023.5
20260503022504 57 43 2.0 3.0 0.00 0.00 0.00 92 1023.6
20260503021504 57 51 0.0 2.0 0.00 0.00 0.00 92 1023.5
20260503021004 57 51 1.0 2.0 0.00 0.00 0.00 92 1023.8
20260503020503 57 51 0.0 1.0 0.00 0.00 0.00 92 1023.7
20260503020004 57 51 1.0 2.0 0.00 0.00 0.00 92 1023.7
20260503015504 57 51 1.0 2.0 0.00 0.00 0.00 92 1024.0
20260503014503 57 51 1.0 1.0 0.00 0.00 0.00 92 1024.0
20260503014004 57 51 0.0 1.0 0.00 0.00 0.00 92 1024.0
20260503013504 57 51 0.0 0.0 0.00 0.00 0.00 92 1024.2
20260503013003 57 51 0.0 1.0 0.00 0.00 0.00 92 1024.1
20260503012004 57 51 0.0 2.0 0.00 0.00 0.00 92 1024.1
20260503011503 57 51 2.0 3.0 0.00 0.00 0.00 92 1024.2
20260503011004 57 51 1.0 2.0 0.00 0.00 0.00 92 1024.4
20260503010504 57 62 1.0 2.0 0.00 0.00 0.00 93 1024.4
20260503010004 57 76 1.0 3.0 0.00 0.00 0.00 93 1024.7
20260503005004 57 53 1.0 2.0 0.00 0.00 0.00 93 1024.8
20260503004504 57 44 1.0 2.0 0.00 0.00 0.00 93 1024.8
20260503004004 57 71 0.0 2.0 0.00 0.00 0.00 93 1025.0
20260503003504 57 72 1.0 1.0 0.00 0.00 0.00 93 1025.0
20260503003003 57 72 0.0 2.0 0.00 0.00 0.00 93 1025.0
20260503002503 57 74 1.0 2.0 0.00 0.00 0.00 93 1025.0
20260503002004 57 65 1.0 2.0 0.00 0.00 0.00 93 1025.1
20260503001503 57 52 1.0 2.0 0.00 0.00 0.00 93 1025.0
20260503001004 57 70 1.0 3.0 0.00 0.00 0.00 93 1024.9
20260503000504 57 59 1.0 3.0 0.00 0.00 0.00 93 1025.2
20260503000004 57 59 1.0 2.0 0.00 0.00 0.00 93 1025.0
20260502235004 57 69 2.0 5.0 0.00 0.00 0.00 93 1025.4
20260502234004 57 55 1.0 3.0 0.00 0.00 0.00 92 1025.2
20260502233003 57 95 1.0 5.0 0.00 0.00 0.00 92 1025.3
20260502232504 58 51 1.0 3.0 0.00 0.00 0.00 92 1025.4
20260502232004 58 58 1.0 3.0 0.00 0.00 0.00 92 1025.4
20260502231503 58 61 1.0 3.0 0.00 0.00 0.00 92 1025.5
20260502231004 58 69 1.0 2.0 0.00 0.00 0.00 92 1025.3
20260502230504 58 54 1.0 2.0 0.00 0.00 0.00 92 1025.4
20260502230004 58 56 1.0 2.0 0.00 0.00 0.00 92 1025.2
20260502225504 58 77 1.0 3.0 0.00 0.00 0.00 92 1025.3
20260502225004 58 50 1.0 2.0 0.00 0.00 0.00 92 1025.3
20260502224504 58 72 1.0 3.0 0.00 0.00 0.00 92 1025.0
20260502223504 58 53 1.0 3.0 0.00 0.00 0.00 91 1025.3
20260502223004 58 40 1.0 5.0 0.00 0.00 0.00 91 1025.0
20260502222504 59 38 1.0 3.0 0.00 0.00 0.00 91 1025.2
20260502222004 59 62 1.0 3.0 0.00 0.00 0.00 91 1025.2
20260502221504 59 68 1.0 3.0 0.00 0.00 0.00 91 1025.3
20260502221005 59 48 1.0 3.0 0.00 0.00 0.00 91 1025.3
20260502220004 59 37 1.0 2.0 0.00 0.00 0.00 90 1025.4
20260502215504 59 67 1.0 2.0 0.00 0.00 0.00 90 1025.1
20260502215003 59 34 1.0 3.0 0.00 0.00 0.00 90 1025.1
20260502214004 59 64 1.0 3.0 0.00 0.00 0.00 89 1025.3
20260502213503 60 54 1.0 5.0 0.00 0.00 0.00 89 1025.3
20260502213004 60 46 2.0 3.0 0.00 0.00 0.00 89 1025.4
20260502212503 60 46 0.0 2.0 0.00 0.00 0.00 89 1025.4
20260502212004 60 46 1.0 2.0 0.00 0.00 0.00 89 1025.3
20260502211504 60 46 1.0 2.0 0.00 0.00 0.00 89 1025.4
20260502211005 60 40 1.0 2.0 0.00 0.00 0.00 89 1025.4
20260502210504 60 51 1.0 2.0 0.00 0.00 0.00 89 1025.3
20260502210004 60 58 2.0 3.0 0.00 0.00 0.00 89 1025.0
20260502205003 60 48 1.0 5.0 0.00 0.00 0.00 89 1024.8
20260502204504 60 48 2.0 3.0 0.00 0.00 0.00 89 1024.9
20260502204003 60 34 3.0 5.0 0.00 0.00 0.00 89 1024.6
20260502203504 60 55 2.0 6.0 0.00 0.00 0.00 89 1024.8
20260502203004 60 43 3.0 6.0 0.00 0.00 0.00 89 1024.8
20260502202504 60 53 2.0 3.0 0.00 0.00 0.00 89 1024.8
20260502202003 60 74 2.0 3.0 0.00 0.00 0.00 89 1024.6
20260502201503 60 41 2.0 5.0 0.00 0.00 0.00 89 1024.7
20260502201004 60 77 1.0 2.0 0.00 0.00 0.00 89 1024.8
20260502200004 60 47 2.0 5.0 0.00 0.00 0.00 89 1024.5
20260502195503 60 47 1.0 7.0 0.00 0.00 0.00 89 1024.5
20260502194503 60 32 2.0 5.0 0.00 0.00 0.00 89 1024.3
20260502194004 60 43 2.0 3.0 0.00 0.00 0.00 89 1024.5
20260502193504 60 53 3.0 5.0 0.00 0.00 0.00 89 1024.4
20260502193004 60 65 1.0 8.0 0.00 0.00 0.00 89 1024.4
20260502192004 61 38 3.0 8.0 0.00 0.00 0.00 88 1024.4
20260502191503 61 57 1.0 3.0 0.00 0.00 0.00 88 1024.3
20260502190504 61 43 3.0 7.0 0.00 0.00 0.00 87 1024.5
20260502190004 61 32 3.0 7.0 0.00 0.00 0.00 87 1024.5
20260502185004 61 43 3.0 7.0 0.00 0.00 0.00 86 1024.2
20260502184503 61 39 5.0 9.0 0.00 0.00 0.00 86 1024.0
20260502184004 62 38 4.0 9.0 0.00 0.00 0.00 85 1024.2
20260502182004 63 49 2.0 5.0 0.00 0.00 0.00 83 1024.2
20260502181503 63 43 2.0 5.0 0.00 0.00 0.00 83 1024.1
20260502181003 63 54 2.0 3.0 0.00 0.00 0.00 82 1024.0
20260502180504 63 41 1.0 3.0 0.00 0.00 0.00 82 1024.1
20260502164004 65 42 5.0 7.0 0.00 0.00 0.00 79 1023.8
20260502163504 65 56 5.0 6.0 0.00 0.00 0.00 78 1023.7
20260502163004 65 61 3.0 5.0 0.00 0.00 0.00 77 1024.2
20260502162503 65 42 2.0 5.0 0.00 0.00 0.00 77 1024.4
20260502162004 65 58 2.0 6.0 0.00 0.00 0.00 78 1024.6
20260502161503 65 49 3.0 7.0 0.00 0.00 0.00 78 1024.4
20260502161003 65 56 3.0 7.0 0.00 0.00 0.00 78 1024.5
20260502160504 65 50 3.0 7.0 0.00 0.00 0.00 77 1024.5
20260502152004 66 46 5.0 7.0 0.00 0.00 0.00 73 1024.7
20260502151503 65 44 6.0 8.0 0.00 0.00 0.00 75 1024.4
20260502151004 66 46 5.0 8.0 0.00 0.00 0.00 76 1024.4
20260502150503 65 59 3.0 8.0 0.00 0.00 0.00 78 1024.9
20260502130504 66 38 5.0 6.0 0.00 0.00 0.00 75 1026.1
20260502123504 66 53 3.0 7.0 0.00 0.00 0.00 75 1026.2
20260502122004 67 36 3.0 7.0 0.00 0.00 0.00 74 1025.7
20260502121503 67 57 2.0 7.0 0.00 0.00 0.00 72 1026.0
20260502120504 66 37 0.0 3.0 0.00 0.00 0.00 72 1026.4
20260502115503 66 126 1.0 6.0 0.00 0.00 0.00 73 1026.5
20260502115004 66 23 4.0 6.0 0.00 0.00 0.00 73 1026.6
20260502114504 66 34 3.0 6.0 0.00 0.00 0.00 73 1026.6
20260502114003 66 46 4.0 9.0 0.00 0.00 0.00 74 1026.6
20260502113504 66 46 3.0 7.0 0.00 0.00 0.00 73 1026.8
20260502113003 66 50 3.0 9.0 0.00 0.00 0.00 74 1026.5
20260502112505 66 48 3.0 7.0 0.00 0.00 0.00 73 1026.7
20260502112004 66 47 4.0 7.0 0.00 0.00 0.00 72 1026.7
20260502111004 66 45 5.0 7.0 0.00 0.00 0.00 72 1026.8
20260502110504 66 47 3.0 6.0 0.00 0.00 0.00 72 1026.8
20260502110004 66 28 3.0 7.0 0.00 0.00 0.00 72 1027.0
20260502105503 65 325 1.0 6.0 0.00 0.00 0.00 73 1027.3
20260502104503 65 47 4.0 7.0 0.00 0.00 0.00 74 1027.3
20260502104005 65 38 3.0 5.0 0.00 0.00 0.00 74 1027.3
20260502103504 66 41 2.0 5.0 0.00 0.00 0.00 74 1027.3
20260502103003 65 23 2.0 6.0 0.00 0.00 0.00 76 1027.5
20260502102503 65 38 4.0 7.0 0.00 0.00 0.00 75 1027.5
20260502102004 64 338 3.0 6.0 0.00 0.00 0.00 77 1027.7
20260502101503 65 56 2.0 5.0 0.00 0.00 0.00 76 1027.5
20260502101004 64 43 2.0 5.0 0.00 0.00 0.00 78 1027.6
20260502100504 64 47 1.0 5.0 0.00 0.00 0.00 77 1027.8
20260502091504 62 46 3.0 6.0 0.00 0.00 0.00 81 1028.4
20260502090504 62 64 2.0 6.0 0.00 0.00 0.00 81 1028.5
20260502071504 60 67 1.0 3.0 0.00 0.00 0.00 84 1029.0
20260502070504 59 44 0.0 2.0 0.00 0.00 0.00 84 1029.0
20260502070004 59 41 1.0 2.0 0.00 0.00 0.00 84 1029.1
20260502065504 59 33 1.0 3.0 0.00 0.00 0.00 84 1029.0
20260502065003 59 31 0.0 2.0 0.00 0.00 0.00 85 1029.0
20260502064504 59 31 0.0 2.0 0.00 0.00 0.00 86 1028.9
20260502063504 58 31 0.0 1.0 0.00 0.00 0.00 86 1029.1
20260502063004 58 31 1.0 2.0 0.00 0.00 0.00 86 1029.1
20260502062503 58 31 0.0 2.0 0.00 0.00 0.00 87 1029.2
20260502062004 58 31 1.0 1.0 0.00 0.00 0.00 87 1029.2
20260502061003 58 31 0.0 2.0 0.00 0.00 0.00 87 1029.1
20260502060504 58 31 0.0 1.0 0.00 0.01 0.00 88 1029.3
20260502060004 57 31 0.0 1.0 0.00 0.03 0.00 88 1029.4
20260502055504 57 31 0.0 1.0 0.00 0.04 0.00 88 1029.1
20260502055003 57 32 1.0 2.0 0.00 0.05 0.00 88 1029.4
20260502054504 57 34 1.0 2.0 0.00 0.06 0.00 88 1029.3
20260502054004 57 36 1.0 1.0 0.00 0.06 0.00 89 1029.3
20260502053505 57 37 0.0 1.0 0.00 0.06 0.00 89 1029.3
20260502053003 57 37 0.0 0.0 0.00 0.06 0.00 89 1029.3
20260502052503 57 37 0.0 0.0 0.00 0.07 0.00 89 1029.3
20260502052004 57 38 0.0 1.0 0.00 0.07 0.00 89 1029.1
20260502051504 57 38 0.0 1.0 0.00 0.08 0.00 88 1028.9
20260502051004 57 38 1.0 2.0 0.00 0.08 0.00 88 1028.9
20260502050004 57 151 0.0 1.0 0.00 0.08 0.00 87 1028.9
20260502045504 57 163 1.0 1.0 0.00 0.08 0.00 87 1029.0
20260502045004 57 217 1.0 2.0 0.00 0.08 0.00 88 1028.8
20260502044504 57 229 1.0 2.0 0.00 0.08 0.00 88 1028.8
20260502043004 57 187 1.0 2.0 0.00 0.08 0.00 87 1028.8
20260502042004 58 214 1.0 2.0 0.00 0.08 0.00 86 1028.9
20260502041504 57 211 1.0 2.0 0.00 0.08 0.00 86 1029.0
20260502041004 57 224 0.0 2.0 0.00 0.08 0.00 86 1029.2
20260502040504 57 201 1.0 3.0 0.00 0.08 0.00 87 1029.1
20260502040004 56 274 1.0 2.0 0.00 0.08 0.00 88 1029.4
20260502035504 56 290 1.0 1.0 0.00 0.08 0.00 90 1029.6
20260502035003 56 294 0.0 1.0 0.00 0.08 0.00 91 1029.7
20260502034504 56 302 1.0 2.0 0.00 0.08 0.00 92 1029.8
20260502034004 56 333 0.0 1.0 0.00 0.08 0.00 94 1029.7
20260502033504 56 41 0.0 1.0 0.00 0.08 0.00 94 1029.8
20260502033003 57 43 0.0 1.0 0.00 0.08 0.00 95 1029.8
20260502031003 57 77 1.0 2.0 0.00 0.08 0.00 95 1029.7
20260502030504 57 78 1.0 1.0 0.00 0.08 0.00 95 1029.7
20260502030004 57 78 0.0 1.0 0.00 0.08 0.00 95 1029.5